Location: Corralito
(10.2667°N, 66.9500°W)
Time: 23:50:51
(UTC+00:00)

YAOGAN 3 - Pass Details

Date: 09 December 2023
Orbit: 615 x 616 km, 97.9° (Epoch: 01 March)

Event Time Altitude Azimuth Distance (km) Brightness Sun altitude
Rises 23:54:36 0° 185° (S) 2,873 8.3 -25.6°
Maximum altitude 00:00:49 34° 259° (W) 1,008 6.1 -27.0°
Drops below altitude 10° 00:04:42 10° 325° (NW) 1,967 7.3 -27.9°
Sets 00:07:02 0° 334° (NNW) 2,872 8.0 -28.5°
